TimeCDT,TemperatureF,Dew PointF,Humidity,Sea Level PressureIn,VisibilityMPH,Wind Direction,Wind SpeedMPH,Gust SpeedMPH,PrecipitationIn,Events,Conditions,WindDirDegrees,DateUTC
12:15 AM,64.4,62.6,94,29.75,10.0,North,20.7,33.4,N/A,,Overcast,360,2014-07-22 05:15:00
12:35 AM,66.2,62.6,88,29.77,10.0,North,15.0,26.5,N/A,,Overcast,10,2014-07-22 05:35:00
12:55 AM,64.4,62.6,94,29.80,9.0,North,12.7,-,0.11,,Overcast,360,2014-07-22 05:55:00
1:15 AM,64.4,62.6,94,29.79,5.0,NNE,6.9,-,0.24,,Overcast,30,2014-07-22 06:15:00
1:35 AM,64.4,62.6,94,29.81,10.0,North,8.1,-,0.28,,Overcast,360,2014-07-22 06:35:00
1:55 AM,64.4,62.6,94,29.84,10.0,WNW,12.7,-,0.33,,Overcast,300,2014-07-22 06:55:00
2:15 AM,64.4,62.6,94,29.83,10.0,NW,11.5,-,0.01,,Mostly Cloudy,320,2014-07-22 07:15:00
2:35 AM,64.4,62.6,94,29.82,10.0,NNW,10.4,-,0.01,,Mostly Cloudy,340,2014-07-22 07:35:00
2:55 AM,64.4,62.6,94,29.84,10.0,NW,15.0,-,0.01,,Mostly Cloudy,320,2014-07-22 07:55:00
3:15 AM,62.6,62.6,100,29.86,10.0,NW,13.8,-,N/A,,Overcast,320,2014-07-22 08:15:00
3:35 AM,62.6,60.8,94,29.86,10.0,NNW,16.1,-,N/A,,Overcast,330,2014-07-22 08:35:00
3:55 AM,62.6,60.8,94,29.87,10.0,NW,12.7,-,N/A,,Overcast,320,2014-07-22 08:55:00
4:15 AM,62.6,62.6,100,29.89,10.0,NW,15.0,-,N/A,,Overcast,320,2014-07-22 09:15:00
4:35 AM,62.6,60.8,94,29.91,10.0,NW,12.7,-,N/A,,Overcast,310,2014-07-22 09:35:00
4:55 AM,62.6,60.8,94,29.92,10.0,WNW,12.7,-,N/A,,Mostly Cloudy,300,2014-07-22 09:55:00
5:15 AM,62.6,59.0,88,29.93,10.0,WNW,12.7,-,N/A,,Partly Cloudy,300,2014-07-22 10:15:00
5:35 AM,62.6,59.0,88,29.94,10.0,NW,13.8,-,N/A,,Partly Cloudy,310,2014-07-22 10:35:00
5:55 AM,62.6,59.0,88,29.95,10.0,NW,13.8,-,N/A,,Clear,310,2014-07-22 10:55:00
6:15 AM,62.6,59.0,88,29.96,10.0,NW,13.8,-,N/A,,Clear,320,2014-07-22 11:15:00
6:35 AM,60.8,59.0,94,29.98,10.0,NW,11.5,-,N/A,,Clear,320,2014-07-22 11:35:00
6:55 AM,62.6,59.0,88,29.99,10.0,NW,11.5,-,N/A,,Clear,310,2014-07-22 11:55:00
7:15 AM,62.6,59.0,88,30.00,10.0,NW,10.4,-,N/A,,Clear,310,2014-07-22 12:15:00
7:35 AM,62.6,57.2,82,30.01,10.0,NW,10.4,-,N/A,,Clear,320,2014-07-22 12:35:00
7:55 AM,62.6,59.0,88,30.02,10.0,NW,11.5,-,N/A,,Clear,320,2014-07-22 12:55:00
8:15 AM,64.4,59.0,83,30.03,10.0,NW,11.5,-,N/A,,Clear,320,2014-07-22 13:15:00
8:35 AM,64.4,57.2,77,30.04,10.0,NW,12.7,-,N/A,,Clear,320,2014-07-22 13:35:00
8:55 AM,64.4,57.2,77,30.05,10.0,NW,11.5,-,N/A,,Clear,320,2014-07-22 13:55:00
9:15 AM,66.2,55.4,68,30.06,10.0,NNW,12.7,-,N/A,,Clear,330,2014-07-22 14:15:00
9:35 AM,66.2,55.4,68,30.06,10.0,NNW,13.8,-,N/A,,Clear,340,2014-07-22 14:35:00
9:55 AM,66.2,55.4,68,30.07,10.0,NNW,15.0,-,N/A,,Clear,330,2014-07-22 14:55:00
10:15 AM,68.0,55.4,64,30.08,10.0,NNW,13.8,-,N/A,,Clear,330,2014-07-22 15:15:00
10:35 AM,68.0,53.6,60,30.09,10.0,NNW,13.8,-,N/A,,Clear,330,2014-07-22 15:35:00
10:55 AM,69.8,53.6,56,30.10,10.0,NNW,15.0,-,N/A,,Clear,330,2014-07-22 15:55:00
11:15 AM,69.8,55.4,60,30.11,10.0,NW,12.7,-,N/A,,Clear,320,2014-07-22 16:15:00
11:35 AM,69.8,53.6,56,30.11,10.0,NW,16.1,-,N/A,,Clear,320,2014-07-22 16:35:00
12:15 PM,71.6,51.8,50,30.12,10.0,NNW,17.3,-,N/A,,Clear,330,2014-07-22 17:15:00
12:35 PM,71.6,51.8,50,30.12,10.0,NNW,18.4,-,N/A,,Clear,340,2014-07-22 17:35:00
12:55 PM,71.6,51.8,50,30.13,10.0,NNW,12.7,-,N/A,,Clear,340,2014-07-22 17:55:00
1:15 PM,73.4,51.8,47,30.13,10.0,NW,16.1,-,N/A,,Clear,320,2014-07-22 18:15:00
1:35 PM,73.4,51.8,47,30.13,10.0,NNW,12.7,-,N/A,,Clear,330,2014-07-22 18:35:00
1:55 PM,73.4,51.8,47,30.14,10.0,NNW,13.8,-,N/A,,Clear,330,2014-07-22 18:55:00
2:15 PM,73.4,51.8,47,30.14,10.0,NW,12.7,-,N/A,,Clear,320,2014-07-22 19:15:00
2:35 PM,73.4,51.8,47,30.15,10.0,NW,15.0,18.4,N/A,,Clear,320,2014-07-22 19:35:00
2:55 PM,73.4,51.8,47,30.15,10.0,NW,15.0,-,N/A,,Clear,320,2014-07-22 19:55:00
3:15 PM,73.4,51.8,47,30.15,10.0,NW,16.1,20.7,N/A,,Clear,310,2014-07-22 20:15:00
3:35 PM,73.4,53.6,50,30.16,10.0,NW,17.3,-,N/A,,Scattered Clouds,310,2014-07-22 20:35:00
3:55 PM,73.4,53.6,50,30.16,10.0,NW,17.3,-,N/A,,Scattered Clouds,320,2014-07-22 20:55:00
4:15 PM,73.4,55.4,53,30.16,10.0,NW,13.8,20.7,N/A,,Mostly Cloudy,310,2014-07-22 21:15:00
4:35 PM,73.4,53.6,50,30.16,10.0,NNW,15.0,18.4,N/A,,Mostly Cloudy,330,2014-07-22 21:35:00
4:55 PM,73.4,55.4,53,30.16,10.0,NW,12.7,18.4,N/A,,Mostly Cloudy,320,2014-07-22 21:55:00
5:15 PM,73.4,53.6,50,30.17,10.0,NNW,12.7,-,N/A,,Scattered Clouds,330,2014-07-22 22:15:00
5:35 PM,73.4,53.6,50,30.17,10.0,NNW,11.5,-,N/A,,Scattered Clouds,340,2014-07-22 22:35:00
5:55 PM,73.4,53.6,50,30.17,10.0,NW,12.7,-,N/A,,Scattered Clouds,320,2014-07-22 22:55:00
6:15 PM,73.4,55.4,53,30.18,10.0,NW,13.8,-,N/A,,Mostly Cloudy,310,2014-07-22 23:15:00
6:35 PM,73.4,53.6,50,30.18,10.0,North,8.1,-,N/A,,Mostly Cloudy,350,2014-07-22 23:35:00
6:55 PM,73.4,51.8,47,30.18,10.0,NNW,9.2,-,N/A,,Mostly Cloudy,330,2014-07-22 23:55:00
7:15 PM,73.4,53.6,50,30.19,10.0,NNW,10.4,-,N/A,,Scattered Clouds,330,2014-07-23 00:15:00
7:35 PM,73.4,53.6,50,30.19,10.0,NNW,9.2,-,N/A,,Clear,340,2014-07-23 00:35:00
7:55 PM,71.6,57.2,60,30.19,10.0,NW,6.9,-,N/A,,Clear,320,2014-07-23 00:55:00
8:15 PM,71.6,55.4,57,30.20,10.0,NW,8.1,-,N/A,,Clear,320,2014-07-23 01:15:00
8:35 PM,69.8,57.2,64,30.20,10.0,NW,6.9,-,N/A,,Clear,310,2014-07-23 01:35:00
9:15 PM,66.2,57.2,73,30.20,10.0,WNW,5.8,-,N/A,,Clear,300,2014-07-23 02:15:00
9:35 PM,66.2,57.2,73,30.21,10.0,NW,6.9,-,N/A,,Clear,310,2014-07-23 02:35:00
9:55 PM,66.2,57.2,73,30.22,10.0,NW,5.8,-,N/A,,Clear,310,2014-07-23 02:55:00
10:15 PM,64.4,57.2,77,30.23,10.0,WNW,4.6,-,N/A,,Clear,300,2014-07-23 03:15:00
10:35 PM,64.4,57.2,77,30.23,10.0,WNW,4.6,-,N/A,,Clear,300,2014-07-23 03:35:00
10:55 PM,64.4,57.2,77,30.23,10.0,NW,3.5,-,N/A,,Clear,320,2014-07-23 03:55:00
11:15 PM,62.6,57.2,82,30.24,10.0,Calm,Calm,-,N/A,,Clear,0,2014-07-23 04:15:00
11:35 PM,62.6,57.2,82,30.24,10.0,Calm,Calm,-,N/A,,Clear,0,2014-07-23 04:35:00